Location: Unspecified
(0.0000°N, 0.0000°E)
Time: 21:46:37
(UTC+02:00)

IUS-9 SRM-1 - Visible Passes

Search period start: 07 July 2015 00:00
Search period end: 17 July 2015 00:00
Orbit: 243 x 20375 km, 26.4° (Epoch: 07 July)

Date Brightness Start Highest point End Pass type
(mag) Time Alt. Az. Time Alt. Az. Time Alt. Az.
07 Jul 5.5 06:15:16 10° NNW 06:20:36 44° NE 06:51:00 10° ESE visible
07 Jul 6.3 23:34:56 10° W 23:46:08 16° NW 23:49:58 11° NNW visible
08 Jul 5.5 06:05:09 10° NNW 06:10:13 42° NE 06:36:54 10° ESE visible
08 Jul 6.2 23:21:36 10° W 23:35:38 18° NW 23:40:08 11° N visible
09 Jul 5.3 05:55:17 13° NNW 05:59:44 39° NE 06:23:07 10° ESE visible
09 Jul 6.2 23:07:43 10° W 23:25:00 20° NW 23:30:10 10° N visible
10 Jul 5.2 05:45:21 16° NNW 05:49:08 36° NE 06:09:34 10° ESE visible
10 Jul 6.2 22:53:11 10° W 23:14:13 22° NW 23:19:51 10° N visible
11 Jul 5.2 05:35:18 19° N 05:38:26 33° NE 05:56:12 10° ESE visible
11 Jul 6.2 22:37:47 10° W 23:03:19 24° NW 23:09:23 10° N visible
12 Jul 5.2 05:25:08 22° N 05:27:36 30° NE 05:42:59 10° ESE visible
12 Jul 6.2 22:21:20 10° W 22:52:15 26° NW 22:58:46 10° N visible
13 Jul 5.2 05:14:51 23° NNE 05:16:40 28° NE 05:29:51 10° E visible
13 Jul 6.2 22:03:27 10° W 22:41:03 28° NW 22:48:00 10° NNE visible
14 Jul 5.3 05:04:27 23° NNE 05:05:38 25° NE 05:16:48 10° E visible
14 Jul 6.2 21:43:38 10° WSW 22:29:42 30° NW 22:37:05 10° NNE visible
15 Jul 5.5 04:53:56 22° NE 04:54:27 22° NE 05:03:47 10° E visible
15 Jul 6.3 21:21:03 10° WSW 22:18:11 33° NW 22:26:02 10° NNE visible
16 Jul 5.7 04:43:18 19° NE 04:43:18 19° NE 04:50:46 10° E visible
16 Jul 6.3 20:54:22 10° WSW 22:06:31 35° NW 22:14:50 10° NNE visible
